星链-33790 (STARLINK-33790)

导读 | 豆包AI

STARLINK-33790是美国星链星座的卫星,星链是SpaceX打造的低轨卫星互联网项目。该星于2025年5月16日由美国发射升空,归入星链低轨卫星星座组网。它将和星链其他卫星协同,为全球提供覆盖偏远地区、高覆盖率的宽带互联网服务,延续星链持续扩张星座规模的部署节奏。

Basic Information
目录编号:
64029
目录名称:
STARLINK-33790
国际标识:
2025-102H
轨道中心:
EARTH
卫星名称:
星链-33790
卫星全名:
星链-33790 (STARLINK-33790)
卫星状态:
在轨 (已飞行302 天)
发射日期:
2025-05-16 UTC
国别 :
美国 (US)
星等 :
--
Orbit Information
数据来源 国际轨道数据 AOE轨道数据
星历时间 2026-03-14T18:50:53+0800
9小时前
查看轨道信息
2026-03-11T09:00:00+0800
3天前
查看轨道信息
半长轴 6950.166km 6950.245km
偏心率 0.0002995 0.0002963
轨道倾角 70.002° 69.999°
近地点辐角 255.536° 271.466°
升交点赤经 102.522° 111.115°
平近点角 104.547° 58.439°
近地点 569.947km 570.048km
远地点 574.111km 574.168km
周期 96.106分钟 96.108分钟
每日圈数 14.983389 14.983132
Detailed Information
固有亮度:
5
最大亮度:
2.5
卫星平台:
Starlink V1.0
覆盖范围:
全球
运营商:
太空探索技术公司
运营商所在国:
美国
制造商(研发单位):
太空探索技术公司
制造商所在国:
美国
使用方式:
暂无
Satellite Introduction
Starlink 计划是 SpaceX 推出的全球卫星互联网项目,通过发射低轨道卫星,为全球尤其是偏远地区提供高速、低延迟的互联网服务。自 2019 年起,Starlink 已部署数千颗卫星,旨在缩小全球数字鸿沟,推动互联网普及。该项目还为军事、航空等行业提供通信支持,带来广泛经济效益。
2D Orbit Map
3D Orbit Map
Orbit Altitude Analysis Chart
Orbit Inclination Analysis Chart
Orbit Comprehensive Analysis Chart
View Comprehensive Chart